Temp
-8 -8 -8 -8 -7 -7 -7 -7 -7 -6 -6 -6 -5 -4 -4 -5 -5 -5 -6 -5 -6 -6 -6 -6 -6 -6 -6 -5 -5 -5 -5 -5
-8 -8 -7 -7 -8 -7 -7 -7 -7 -6 -6 -6 -6 -5 -5 -5 -5 -6 -5 -5 -6 -6 -6 -6 -6 -6 -6 -5 -5 -5 -5 -5
-9 -7 -8 -8 -8 -7 -8 -8 -7 -7 -6 -6 -6 -5 -5 -5 -6 -6 -6 -6 -6 -6 -6 -6 -6 -6 -6 -5 -5 -5 -5 -5
-7 -8 -8 -7 -7 -8 -8 -8 -7 -6 -5 -6 -6 -6 -6 -5 -5 -6 -6 -6 -6 -6 -6 -6 -6 -6 -6 -6 -5 -5 -6 -6
-7 -8 -8 -7 -7 -7 -7 -8 -8 -7 -6 -6 -6 -6 -6 -5 -6 -6 -7 -5 -6 -6 -6 -6 -6 -6 -7 -7 -5 -6 -6 -6
-8 -7 -7 -7 -7 -7 -7 -7 -7 -8 -7 -7 -7 -6 -7 -5 -4 -5 -6 -5 -6 -7 -6 -6 -6 -6 -7 -7 -7 -7 -6 -6
-8 -8 -7 -7 -7 -7 -7 -7 -8 -7 -6 -6 -7 -7 -7 -6 -6 -7 -6 -5 -6 -7 -6 -6 -6 -7 -7 -8 -8 -7 -7 -6
-8 -8 -8 -7 -7 -7 -7 -7 -8 -7 -7 -6 -7 -6 -7 -6 -5 -6 -7 -6 -5 -6 -6 -6 -6 -6 -7 -8 -8 -9 -8 -6
-8 -8 -8 -7 -7 -7 -7 -7 -7 -8 -7 -7 -6 -5 -6 -6 -6 -6 -7 -6 -5 -6 -6 -6 -6 -6 -7 -7 -8 -9 -9 -9
-8 -8 -8 -8 -7 -7 -7 -7 -7 -9 -8 -7 -6 -5 -6 -7 -7 -7 -6 -6 -5 -6 -6 -6 -6 -6 -6 -7 -7 -8 -8 -7
-9 -8 -8 -8 -8 -8 -8 -8 -7 -8 -8 -8 -7 -7 -7 -7 -6 -8 -8 -6 -6 -6 -6 -6 -6 -6 -6 -6 -6 -6 -6 -7
-8 -9 -9 -8 -8 -8 -8 -8 -8 -8 -7 -8 -8 -6 -8 -7 -7 -5 -5 -7 -6 -6 -6 -6 -6 -6 -6 -5 -5 -6 -5 -5
-9 -9 -8 -8 -9 -9 -9 -8 -8 -8 -8 -8 -8 -8 -7 -7 -5 -5 -6 -8 -6 -6 -6 -6 -6 -5 -5 -5 -5 -5 -5 -5
-10 -10 -9 -9 -9 -9 -9 -10 -8 -8 -8 -8 -8 -8 -6 -7 -6 -6 -7 -6 -5 -6 -6 -6 -6 -5 -5 -5 -5 -5 -5 -5
-10 -10 -9 -9 -9 -9 -8 -8 -9 -8 -8 -8 -8 -8 -9 -9 -8 -8 -8 -7 -7 -6 -6 -6 -6 -6 -5 -5 -5 -5 -5 -4
-11 -10 -11 -10 -9 -9 -8 -7 -8 -8 -8 -9 -8 -8 -8 -8 -8 -8 -8 -8 -7 -7 -5 -6 -6 -6 -6 -5 -5 -5 -5 -4
-12 -12 -11 -12 -10 -9 -9 -8 -8 -8 -8 -8 -9 -8 -8 -9 -8 -8 -8 -7 -6 -5 -5 -6 -7 -6 -6 -6 -5 -5 -5 -5
-12 -12 -11 -11 -10 -9 -9 -8 -8 -8 -8 -8 -8 -9 -8 -8 -8 -8 -7 -6 -4 -4 -5 -6 -7 -6 -6 -6 -6 -5 -5 -5
-12 -12 -12 -11 -9 -8 -8 -8 -7 -7 -7 -8 -8 -8 -8 -9 -8 -8 -8 -8 -7 -6 -6 -7 -8 -7 -6 -6 -6 -6 -5 -5
Height
5898 5901 5901 5901 5899 5906 5899 5902 5901 5900 5899 5894 5891 5896 5893 5891 5897 5895 5896 5900 5901 5898 5901 5901 5901 5903 5903 5903 5903 5900 5900 5902
5881 5892 5897 5895 5899 5899 5898 5900 5900 5898 5899 5898 5892 5893 5884 5887 5892 5892 5898 5901 5902 5900 5902 5900 5901 5902 5902 5900 5898 5895 5895 5898
5883 5884 5889 5893 5894 5897 5897 5898 5895 5896 5897 5901 5900 5901 5891 5884 5886 5895 5898 5898 5898 5902 5902 5904 5903 5900 5898 5896 5894 5892 5893 5896
5879 5883 5890 5893 5890 5893 5895 5895 5890 5893 5894 5898 5899 5897 5895 5896 5896 5893 5897 5899 5901 5904 5901 5899 5900 5897 5897 5895 5891 5890 5890 5893
5876 5880 5884 5888 5889 5891 5892 5891 5889 5889 5891 5896 5892 5893 5898 5895 5891 5889 5892 5897 5899 5898 5898 5899 5899 5898 5897 5894 5888 5888 5889 5892
5871 5876 5880 5885 5889 5890 5889 5889 5886 5885 5888 5889 5883 5885 5884 5888 5887 5888 5893 5897 5898 5898 5900 5901 5899 5897 5897 5893 5888 5887 5888 5891
5865 5868 5874 5878 5881 5885 5886 5885 5882 5883 5885 5887 5885 5882 5881 5879 5884 5891 5895 5895 5897 5898 5900 5901 5898 5898 5899 5895 5891 5888 5890 5894
5858 5862 5865 5868 5873 5878 5881 5882 5878 5879 5878 5880 5885 5886 5882 5880 5886 5889 5888 5892 5897 5899 5900 5899 5898 5899 5901 5899 5894 5892 5891 5896
5850 5858 5861 5861 5867 5871 5874 5877 5876 5875 5876 5877 5877 5879 5878 5882 5883 5890 5891 5889 5895 5897 5898 5899 5899 5899 5901 5901 5900 5898 5899 5901
5844 5850 5849 5856 5862 5866 5869 5872 5875 5868 5867 5865 5871 5877 5873 5872 5875 5884 5891 5892 5895 5896 5898 5900 5900 5900 5902 5903 5904 5905 5907 5908
5837 5840 5846 5850 5857 5861 5864 5868 5870 5867 5867 5870 5868 5866 5861 5867 5856 5874 5887 5890 5894 5897 5898 5901 5901 5900 5903 5906 5907 5910 5912 5914
5830 5833 5836 5845 5854 5860 5860 5863 5861 5862 5862 5867 5869 5869 5863 5859 5873 5882 5883 5886 5893 5896 5898 5901 5902 5901 5903 5906 5909 5911 5913 5915
5824 5826 5831 5842 5848 5841 5851 5854 5856 5857 5860 5861 5865 5865 5868 5871 5873 5879 5879 5883 5889 5894 5897 5900 5902 5902 5904 5906 5908 5911 5913 5916
5818 5820 5824 5839 5839 5837 5841 5839 5850 5853 5855 5858 5862 5861 5865 5861 5868 5870 5875 5883 5884 5890 5892 5898 5902 5902 5903 5906 5908 5910 5911 5914
5808 5812 5818 5831 5832 5828 5830 5835 5841 5847 5850 5852 5855 5859 5861 5865 5863 5870 5874 5877 5878 5886 5888 5891 5898 5902 5902 5904 5906 5908 5910 5912
5796 5802 5808 5812 5821 5817 5819 5825 5834 5839 5844 5849 5853 5857 5859 5862 5864 5864 5871 5874 5871 5877 5887 5886 5892 5898 5901 5902 5904 5907 5910 5912
5785 5788 5792 5799 5804 5807 5807 5816 5826 5832 5837 5842 5847 5850 5853 5855 5858 5861 5864 5870 5877 5877 5884 5884 5885 5893 5897 5900 5902 5905 5907 5909
5767 5771 5777 5779 5785 5792 5794 5802 5813 5821 5828 5832 5837 5842 5846 5848 5849 5853 5859 5861 5869 5873 5875 5876 5881 5888 5891 5895 5898 5900 5903 5906
5754 5759 5764 5766 5770 5774 5779 5789 5798 5807 5816 5823 5826 5831 5836 5841 5845 5849 5853 5855 5857 5861 5864 5871 5871 5880 5886 5889 5893 5895 5897 5900
Wind_Speed
16 24 25 31 24 21 24 18 19 21 25 18 8 5 9 10 3 2 9 9 6 1 7 8 7 8 9 9 9 13 10 16
34 36 30 25 21 21 26 23 22 19 19 18 5 12 19 20 5 4 4 5 4 2 5 4 7 8 10 11 10 8 7 15
17 20 25 15 33 22 21 16 19 17 23 17 22 9 12 16 9 8 1 2 1 4 4 2 3 11 13 14 11 4 9 15
25 19 9 21 22 17 29 15 20 17 25 20 16 15 16 18 16 10 7 1 3 3 3 4 6 11 13 16 7 7 12 19
28 17 17 20 20 22 26 24 29 29 22 15 17 15 18 15 26 15 30 2 5 4 4 4 6 8 13 17 7 10 13 12
30 25 22 16 20 22 24 16 25 28 25 23 29 21 30 19 16 9 6 6 5 3 3 2 3 6 10 14 6 8 11 10
31 25 30 27 19 21 25 31 24 21 27 29 29 17 16 21 26 17 11 6 4 3 4 1 2 3 5 14 11 6 10 12
38 35 34 34 27 23 9 23 18 25 24 29 21 30 22 25 16 11 11 8 5 5 4 4 5 3 5 8 13 6 15 22
41 41 32 40 34 28 22 17 18 20 20 25 29 9 12 6 6 12 15 14 5 7 4 6 7 5 5 10 8 14 19 29
39 36 45 40 39 33 27 22 21 23 25 21 25 14 14 21 20 12 13 13 7 5 7 6 8 8 7 9 16 15 15 19
35 33 32 31 28 28 27 21 25 25 24 20 13 17 5 11 22 14 10 13 10 8 8 6 7 9 9 12 10 12 13 13
34 31 30 21 11 10 15 22 23 18 29 26 18 18 8 9 8 13 16 11 11 12 9 7 5 9 9 10 11 11 12 9
36 38 33 23 23 32 27 27 29 23 23 23 31 32 30 24 12 16 17 8 14 15 12 11 9 7 11 11 11 11 11 12
42 43 41 27 32 30 30 32 30 30 31 31 29 33 31 9 12 13 14 18 20 20 18 14 11 9 9 12 11 11 12 13
41 46 42 33 40 39 39 42 37 36 34 31 27 21 22 24 26 22 22 21 26 21 24 18 16 12 11 11 12 10 10 13
39 35 30 41 42 52 53 50 42 41 41 39 37 31 31 33 34 30 28 21 27 20 23 24 20 18 14 13 12 12 12 14
43 35 39 40 47 57 60 55 49 44 42 42 41 42 42 39 38 40 36 26 21 36 23 25 21 23 19 15 14 12 11 11
55 50 43 52 57 58 62 58 51 48 47 42 43 43 40 39 39 38 29 28 22 27 23 23 20 25 24 20 17 16 13 12
67 61 56 57 60 62 64 62 55 49 42 43 38 39 40 36 38 39 34 28 30 27 20 27 26 19 26 25 22 20 18 16
Wind_Direction
223 242 253 272 281 262 267 287 299 284 302 336 113 174 217 142 291 292 317 307 198 328 241 264 297 312 298 302 308 293 244 217
246 225 228 213 267 276 266 289 283 278 300 333 173 168 239 176 29 3 310 293 194 208 243 296 304 309 303 317 319 294 215 200
238 260 214 293 262 275 286 297 299 305 291 302 350 263 259 163 163 293 223 356 346 221 196 199 311 307 327 329 327 264 194 190
218 222 283 289 238 273 282 276 259 273 282 296 333 234 209 222 225 208 127 107 293 183 97 16 346 325 332 331 331 207 180 189
221 197 239 263 281 288 305 253 273 279 278 315 313 278 243 224 224 232 261 278 286 358 339 352 330 331 328 341 355 181 165 181
237 204 206 230 253 276 297 303 277 275 288 301 296 285 203 199 208 224 260 259 275 357 310 285 349 344 343 355 32 130 155 154
229 226 222 215 224 244 279 282 291 295 274 274 288 281 178 196 182 246 226 250 288 262 258 252 74 15 10 23 18 147 171 140
222 221 216 211 216 222 259 284 275 297 286 269 258 289 217 217 196 256 251 242 261 228 205 115 115 78 94 48 26 131 144 164
232 225 229 215 209 213 222 227 267 275 279 275 269 150 158 237 186 237 234 240 234 203 153 130 121 107 112 78 70 94 98 115
238 239 238 239 219 212 225 227 225 260 283 290 275 258 181 198 181 176 220 223 204 203 144 140 125 129 129 131 103 106 105 124
239 243 247 243 232 222 229 251 242 240 256 274 274 262 193 235 172 158 219 223 184 206 168 157 135 134 148 140 122 129 141 144
235 227 230 226 192 191 240 244 245 230 244 240 263 223 274 279 310 235 211 220 198 200 193 176 155 142 155 180 173 154 173 180
240 237 237 203 184 229 201 225 222 236 228 231 234 242 249 239 209 195 187 201 217 200 204 198 185 162 154 182 190 178 170 169
234 239 237 205 197 233 211 213 213 226 237 239 230 238 237 249 253 252 209 217 220 197 201 210 211 176 174 178 189 186 181 182
233 236 239 209 206 223 228 217 208 212 224 235 240 239 228 238 254 257 250 219 230 213 198 206 216 209 182 182 188 198 198 188
225 226 229 232 217 222 227 227 217 210 217 222 223 222 223 228 238 250 250 254 281 233 209 203 215 222 203 186 187 196 202 203
213 213 218 215 222 219 228 231 228 223 219 226 227 228 231 235 235 237 244 252 251 240 214 216 212 222 221 202 185 194 203 212
205 210 209 215 223 226 226 231 230 230 227 231 229 230 231 232 238 240 243 244 215 207 196 206 219 225 223 221 203 193 199 207
210 211 209 216 227 230 229 230 233 232 226 225 224 223 225 224 225 227 232 239 242 243 241 240 212 227 234 226 218 206 200 205